Back to catalog

FENGYUN 1C DEB

AlivePO
NORAD 35111·DEBRIS·🇨🇳 China

Launched May 10, 1999 from Taiyuan Satellite Launch Center

Loading…

Next Passes (next 24 hours)

TLE

FreshSource: Space-Track

Epoch: Sep 12, 2026, 11:41 UTC

1 35111U 99025DKP 26255.48726773  .00000484  00000-0  29421-3 0  9997
2 35111  99.4568 353.5456 0022326 179.8808 180.2370 14.11344720680058

Track FENGYUN 1C DEB in real time with AllMySat

Download on the App Store